Total_Precipitation_Accumulation
0.02 0.06 0.12 0.17 0.16 0.11 0.06 0.05 0.06 0.07 0.13 0.20 0.35 0.46 0.47 0.46 0.47 0.41 0.30 0.28 0.28 0.27 0.28 0.30 0.34 0.38 0.46 0.58 0.60 0.66 0.79 0.88 0.95 0.98 1.06 1.18 1.26 1.21 1.24 1.24 1.24 1.39 1.46 1.44
0.03 0.05 0.08 0.11 0.14 0.10 0.06 0.06 0.05 0.07 0.14 0.25 0.42 0.47 0.49 0.44 0.41 0.38 0.37 0.32 0.30 0.32 0.36 0.36 0.39 0.46 0.52 0.60 0.68 0.84 1.14 1.25 1.25 1.29 1.34 1.35 1.36 1.31 1.37 1.45 1.58 1.64 1.62 1.58
0.05 0.07 0.08 0.13 0.12 0.10 0.09 0.08 0.08 0.12 0.20 0.28 0.39 0.53 0.60 0.52 0.40 0.38 0.36 0.37 0.38 0.40 0.47 0.47 0.50 0.53 0.56 0.61 0.70 0.88 1.11 1.25 1.35 1.38 1.40 1.46 1.47 1.48 1.48 1.55 1.63 1.70 1.78 1.77
0.10 0.10 0.17 0.15 0.14 0.14 0.13 0.13 0.16 0.24 0.34 0.36 0.38 0.45 0.49 0.41 0.40 0.43 0.43 0.47 0.51 0.52 0.58 0.59 0.61 0.62 0.69 0.81 0.93 1.04 1.15 1.27 1.43 1.48 1.52 1.55 1.54 1.47 1.44 1.46 1.46 1.44 1.44 1.43
0.21 0.20 0.18 0.17 0.20 0.21 0.20 0.25 0.28 0.39 0.49 0.53 0.51 0.51 0.60 0.52 0.50 0.50 0.54 0.56 0.60 0.65 0.69 0.76 0.82 0.83 0.87 1.02 1.15 1.21 1.27 1.42 1.53 1.61 1.71 1.64 1.53 1.49 1.39 1.37 1.28 1.22 1.20 1.20
0.32 0.34 0.34 0.26 0.30 0.29 0.31 0.51 0.48 0.53 0.64 0.72 0.72 0.88 0.94 0.71 0.65 0.59 0.56 0.60 0.63 0.74 0.81 0.87 0.99 1.03 1.05 1.11 1.15 1.20 1.24 1.34 1.47 1.55 1.68 1.73 1.64 1.58 1.50 1.48 1.38 1.31 1.25 1.24
0.41 0.43 0.39 0.37 0.35 0.36 0.63 0.86 0.78 0.74 0.73 0.82 0.92 0.86 0.81 0.68 0.66 0.63 0.56 0.57 0.61 0.69 0.82 0.89 0.97 1.07 1.18 1.20 1.12 1.12 1.09 1.10 1.20 1.35 1.49 1.56 1.57 1.53 1.57 1.55 1.46 1.32 1.20 1.14
0.53 0.67 0.76 0.54 0.44 0.63 0.88 0.85 0.93 0.85 0.84 0.89 0.92 0.92 0.86 0.77 0.70 0.63 0.55 0.57 0.63 0.68 0.75 0.86 0.97 1.13 1.27 1.25 1.21 1.17 1.18 1.24 1.27 1.30 1.30 1.28 1.32 1.34 1.41 1.46 1.44 1.34 1.18 1.04
0.79 0.93 0.86 0.62 0.63 0.69 0.71 0.86 0.88 0.84 0.85 0.88 0.87 0.85 0.78 0.69 0.67 0.71 0.65 0.63 0.62 0.68 0.75 0.86 1.03 1.19 1.35 1.34 1.39 1.37 1.33 1.36 1.35 1.34 1.33 1.34 1.31 1.29 1.29 1.25 1.18 1.10 0.99 0.99
1.03 1.16 0.98 0.81 0.72 0.71 0.74 0.79 0.81 0.79 0.85 0.86 0.81 0.74 0.72 0.69 0.66 0.72 0.73 0.69 0.68 0.69 0.74 0.83 0.90 1.00 1.17 1.25 1.31 1.37 1.33 1.25 1.14 1.09 1.09 1.13 1.18 1.18 1.21 1.17 1.13 1.07 0.99 1.01
1.27 1.46 1.33 1.13 0.91 0.82 0.88 0.90 0.94 0.93 0.89 0.85 0.85 0.86 0.91 0.89 0.78 0.71 0.72 0.75 0.74 0.74 0.77 0.81 0.86 0.90 0.98 1.07 1.17 1.33 1.38 1.30 1.23 1.18 1.13 1.11 1.13 1.18 1.16 1.13 1.11 1.04 0.99 1.05
1.45 1.45 1.50 1.39 1.07 0.96 1.03 1.11 1.11 1.04 1.00 0.97 0.96 0.95 0.90 0.86 0.79 0.72 0.69 0.73 0.78 0.83 0.86 0.83 0.84 0.91 0.97 1.07 1.21 1.37 1.38 1.29 1.28 1.27 1.23 1.20 1.16 1.18 1.21 1.09 1.08 1.02 1.00 1.01
1.12 1.29 1.38 1.29 1.17 1.09 1.14 1.21 1.23 1.15 1.01 0.97 0.93 0.88 0.81 0.81 0.81 0.75 0.72 0.75 0.85 0.91 0.88 0.83 0.82 0.88 0.96 1.09 1.27 1.37 1.38 1.34 1.29 1.26 1.27 1.24 1.19 1.15 1.19 1.11 0.94 0.85 0.83 0.79
1.12 1.25 1.41 1.36 1.30 1.24 1.30 1.38 1.36 1.22 1.07 0.98 0.90 0.83 0.81 0.82 0.85 0.86 0.86 0.91 0.91 0.84 0.76 0.74 0.76 0.77 0.84 0.95 1.16 1.33 1.34 1.36 1.32 1.25 1.21 1.19 1.16 1.14 1.11 1.11 1.02 0.88 0.75 0.65
1.08 1.05 1.20 1.22 1.26 1.27 1.33 1.31 1.26 1.22 1.07 0.95 0.85 0.77 0.74 0.76 0.84 0.91 0.98 1.05 0.97 0.82 0.72 0.68 0.66 0.63 0.67 0.75 0.86 0.99 1.05 1.03 1.03 1.05 1.07 1.06 1.01 0.94 0.90 0.87 0.87 0.87 0.75 0.57
0.93 0.95 0.94 1.07 1.15 1.13 1.15 1.16 1.14 1.11 1.05 1.00 0.91 0.85 0.81 0.78 0.80 0.84 0.91 0.93 0.93 0.87 0.77 0.71 0.71 0.67 0.64 0.72 0.73 0.72 0.72 0.80 0.76 0.71 0.72 0.75 0.74 0.72 0.69 0.71 0.76 0.83 0.78 0.60
0.94 1.01 0.97 0.99 1.02 0.99 0.94 0.97 0.98 0.97 0.96 0.98 0.92 0.81 0.75 0.76 0.84 0.90 0.88 0.77 0.69 0.66 0.65 0.63 0.63 0.63 0.61 0.66 0.66 0.62 0.56 0.53 0.52 0.44 0.47 0.56 0.61 0.59 0.58 0.64 0.71 0.80 0.74 0.56
0.86 0.93 0.88 0.81 0.77 0.82 0.79 0.81 0.87 0.86 0.87 0.85 0.77 0.68 0.64 0.68 0.78 0.86 0.78 0.67 0.63 0.58 0.52 0.48 0.46 0.45 0.48 0.48 0.45 0.44 0.42 0.40 0.37 0.34 0.40 0.45 0.45 0.52 0.61 0.68 0.73 0.78 0.72 0.59
0.78 0.72 0.70 0.67 0.61 0.65 0.65 0.65 0.73 0.77 0.76 0.71 0.65 0.64 0.64 0.64 0.65 0.67 0.59 0.57 0.58 0.55 0.45 0.36 0.38 0.34 0.33 0.30 0.32 0.33 0.37 0.36 0.33 0.35 0.40 0.40 0.41 0.49 0.63 0.71 0.73 0.74 0.73 0.71
0.69 0.61 0.55 0.52 0.48 0.48 0.52 0.56 0.52 0.53 0.57 0.57 0.62 0.62 0.57 0.56 0.54 0.55 0.51 0.51 0.50 0.43 0.36 0.30 0.29 0.32 0.32 0.28 0.27 0.26 0.30 0.33 0.32 0.30 0.31 0.34 0.40 0.44 0.50 0.56 0.61 0.65 0.67 0.69
0.59 0.51 0.49 0.49 0.47 0.46 0.44 0.40 0.38 0.39 0.42 0.44 0.49 0.53 0.52 0.52 0.49 0.49 0.56 0.58 0.49 0.39 0.35 0.35 0.30 0.28 0.28 0.30 0.28 0.24 0.28 0.31 0.31 0.32 0.31 0.34 0.39 0.44 0.49 0.53 0.57 0.58 0.61 0.65
0.60 0.52 0.50 0.50 0.52 0.50 0.45 0.40 0.36 0.36 0.38 0.43 0.43 0.45 0.50 0.54 0.52 0.54 0.57 0.61 0.55 0.50 0.37 0.30 0.26 0.25 0.25 0.25 0.25 0.28 0.29 0.33 0.38 0.41 0.40 0.38 0.42 0.49 0.54 0.55 0.57 0.56 0.59 0.62
0.63 0.61 0.60 0.60 0.60 0.58 0.49 0.44 0.41 0.41 0.40 0.42 0.44 0.50 0.55 0.58 0.59 0.61 0.58 0.51 0.50 0.52 0.44 0.37 0.33 0.30 0.26 0.24 0.28 0.34 0.34 0.34 0.38 0.42 0.44 0.43 0.44 0.47 0.52 0.52 0.58 0.59 0.60 0.63
0.72 0.67 0.64 0.59 0.54 0.58 0.57 0.52 0.47 0.45 0.45 0.45 0.46 0.51 0.60 0.65 0.65 0.61 0.58 0.55 0.52 0.49 0.45 0.46 0.42 0.36 0.32 0.30 0.36 0.39 0.40 0.41 0.42 0.41 0.39 0.39 0.40 0.44 0.53 0.57 0.57 0.57 0.59 0.62
0.83 0.74 0.63 0.57 0.55 0.56 0.58 0.59 0.54 0.48 0.46 0.49 0.47 0.46 0.50 0.59 0.69 0.69 0.63 0.55 0.51 0.46 0.45 0.46 0.44 0.47 0.43 0.43 0.44 0.43 0.43 0.47 0.51 0.49 0.46 0.47 0.50 0.54 0.57 0.55 0.51 0.48 0.50 0.56
0.90 0.82 0.72 0.64 0.56 0.53 0.57 0.62 0.64 0.61 0.53 0.51 0.49 0.47 0.47 0.51 0.57 0.64 0.68 0.63 0.56 0.52 0.52 0.51 0.48 0.49 0.51 0.56 0.60 0.59 0.56 0.56 0.55 0.54 0.54 0.55 0.61 0.63 0.53 0.44 0.41 0.43 0.44 0.46
0.87 0.83 0.75 0.67 0.59 0.53 0.52 0.55 0.59 0.61 0.60 0.59 0.55 0.54 0.57 0.62 0.65 0.65 0.64 0.61 0.55 0.54 0.55 0.52 0.47 0.44 0.42 0.44 0.47 0.48 0.48 0.50 0.54 0.60 0.62 0.61 0.59 0.56 0.47 0.40 0.38 0.38 0.42 0.42